Preview of NWS' New Version of Forecast
This preview is not operational and should not be used for support decisions.

Regional Weather Roundup (RWR)

Issued by National Weather Service (NWS)

                            
000
ASUS43 KLSX 192357
RWRMO 

WEATHER SUMMARY FOR MISSOURI
NATIONAL WEATHER SERVICE SPRINGFIELD MO
700 PM CDT MON AUG 19 2019

NOTE: "FAIR" INDICATES FEW OR NO CLOUDS BELOW 12,000 FEET WITH NO
       SIGNIFICANT WEATHER AND/OR OBSTRUCTIONS TO VISIBILITY.
       CURRENT SKY AND/OR WEATHER CONDITIONS ARE NOT AVAILABLE FOR
       CHILLICOTHE AND FARMINGTON.

MOZ001>031-035>038-043-044-053-054-200100-
...NORTHERN AND WESTERN MISSOURI...
  
CITY           SKY/WX    TMP DP  RH WIND       PRES   REMARKS
KANSAS CTY INT MOSUNNY   90  77  65 S10       29.92F HX 103           
6HR MIN TEMP:  88; 6HR MAX TEMP:  93;                                

LEE'S SUMMIT   SUNNY     90  77  65 S10       29.94F HX 103           
6HR MIN TEMP:  90; 6HR MAX TEMP:  93;                                

ST JOSEPH      SUNNY     89  78  70 SE8       29.91S HX 103           
6HR MIN TEMP:  88; 6HR MAX TEMP:  92;                                

CHILLICOTHE      N/A     88  78  72 E3        29.95F HX 101           
6HR MIN TEMP:  87; 6HR MAX TEMP:  93;                                

     
$$
MOZ066>068-077>081-088>096-101>105-200100-
...SOUTHWEST MISSOURI...
  
CITY           SKY/WX    TMP DP  RH WIND       PRES   REMARKS
SPRINGFIELD    SUNNY     93  74  53 CALM      29.97F HX 103           
6HR MIN TEMP:  92; 6HR MAX TEMP:  95;                                

JOPLIN         SUNNY     91  75  59 SE6       29.95F HX 101           
6HR MIN TEMP:  91; 6HR MAX TEMP:  93;                                

BRANSON        MOSUNNY   91  72  52 S5        30.00F HX  98           
               
$$
MOZ032>034-039>042-045>050-055>058-069>072-200100-
...CENTRAL MISSOURI...  
  
CITY           SKY/WX    TMP DP  RH WIND       PRES   REMARKS
COLUMBIA       NOT AVBL                                               
ROLLA          LGT RAIN  87  78  74 SW8       30.00S HX 100           
6HR MIN TEMP:  87; 6HR MAX TEMP:  93; 6HR PCP: TRACE;                

SEDALIA        SUNNY     87  76  69 S5        29.96F HX  97           
6HR MIN TEMP:  86; 6HR MAX TEMP:  90;                                

WARRENSBURG    SUNNY     88  77  70 SE6       29.94F HX 100           
               
$$
MOZ051-052-059>065-200100-
...EAST CENTRAL MISSOURI...
  
CITY           SKY/WX    TMP DP  RH WIND       PRES   REMARKS
ST LOUIS INTL  PTCLDY    91  75  59 E9        29.97R HX 101           
6HR MIN TEMP:  91; 6HR MAX TEMP:  97;                                

                   
$$
MOZ072>076-082>087-097>100-106>115-200100-
...SOUTH CENTRAL AND SOUTHEAST MISSOURI...
  
CITY           SKY/WX    TMP DP  RH WIND       PRES   REMARKS
CAPE GIRARDEAU FAIR      88  77  69 SW5       29.97S HX 100           
6HR MIN TEMP:  86; 6HR MAX TEMP:  93;                                

POPLAR BLUFF   FAIR      86  76  71 S5        29.96F HX  96           
6HR MIN TEMP:  86; 6HR MAX TEMP:  92;                                

WEST PLAINS    CLEAR     89  73  59 SE6       30.02S HX  97           
6HR MIN TEMP:  88; 6HR MAX TEMP:  97;                                

                                       
$$